Location: Bergnershof
(48.9468°N, 10.9431°E)
Time: 23:22:55
(UTC+00:00)

Cosmos 1727 Rocket - Pass Details

Date: 03 March 2021
Orbit: 961 x 996 km, 82.9° (Epoch: 13 April)

Event Time Altitude Azimuth Distance (km) Brightness Sun altitude
Rises 18:41:27 0° 354° (N) 3,659 7.2 -16.9°
Reaches altitude 10° 18:44:05 10° 1° (N) 2,709 6.4 -17.3°
Maximum altitude 18:50:00 45° 73° (ENE) 1,293 4.2 -18.3°
Enters shadow 18:52:57 27° 129° (SE) 1,758 4.8 -18.8°
